Regional Weather Roundup
Issued by NWS

Home | Current Version | Previous Version | Graphics & Text | Print | Product List | Glossary On
Versions: 1 2 3 4 5 6 7 8 9 10 11 12 13 14 15 16 17 18 19 20 21 22 23 24 25 26 27 28 29 30 31 32 33 34 35 36 37 38 39 40 41 42 43 44 45 46 47 48 49 50
000
ASUS43 KLOT 012100
RWRIL

ILLINOIS REGIONAL WEATHER ROUNDUP
NATIONAL WEATHER SERVICE CHICAGO/ROMEOVILLE IL
400 PM CDT SAT AUG 01 2015

NOTE: "FAIR" INDICATES FEW OR NO CLOUDS BELOW 12,000 FEET WITH NO
SIGNIFICANT WEATHER AND/OR OBSTRUCTIONS TO VISIBILITY.

* THESE STATIONS ARE NOT UNDER NWS QUALITY CONTROL. THEY ALSO MAY NOT
  REPORT WEATHER SUCH AS PRECIPITATION OR FOG.

ILZ001-002-007-009-015-016-024-012200-
NORTHWEST ILLINOIS

CITY           SKY/WX    TMP DP  RH WIND       PRES   REMARKS
MOLINE         PTSUNNY   87  63  44 W9        29.96F HX  88
STERLING*      MOSUNNY   88  64  45 W13G20    29.91F HX  89
$$

ILZ003-004-008-010-011-017-018-012200-
NORTH CENTRAL ILLINOIS

CITY           SKY/WX    TMP DP  RH WIND       PRES   REMARKS
ROCKFORD       MOSUNNY   86  61  42 W14G20    29.94F HX  86
$$

ILZ005-006-012>014-019>023-012200-
NORTHEAST ILLINOIS

CITY           SKY/WX    TMP DP  RH WIND       PRES   REMARKS
CHICAGO-OHARE  PTSUNNY   85  58  39 W16G24    29.92F HX  84
CHICAGO-MIDWAY PTSUNNY   88  55  32 W15G23    29.92F HX  86
AURORA         SUNNY     85  60  42 W17       29.94F HX  85
WAUKEGAN       PTSUNNY   84  59  42 SW8       29.91F HX  84
DUPAGE AIRPORT MOSUNNY   83  59  44 SW13      29.94S HX  83
WHEELING       MOSUNNY   86  56  35 W14G23    29.93S HX  85
NORTHERLY ISL    N/A     86  53  32 W13         N/A  HX  84
$$

LMZ740>746-012200-
SOUTHERN LAKE MICHIGAN

STATION/POSITION SKY/WX   TEMP    WIND        PRES    VSBY  WAVE
                          AIR SEA DIR/SP/G                  HT/PER
                          (F)     (DEG/KT/KT) (MB)    (MI)  (FT/S)
HARRISON CRIB              82     280/ 15/ 19   N/A
BURNHAM HARBOR             85     270/ 10/ 17   N/A
CALUMET HARBOR             85     250/  5/ 12   N/A
BURNS HARBOR               82      70/  5/  6 1014.2F
MICHIGAN CITY              78      20/  1/  1   N/A
MICHIGAN CITY 6N           78 76  140/  4/  4   N/A           1/ 4
ST. JOSEPH                 75 74  140/  2/  2   N/A           2/ 4
$$

ILZ025>027-034>036-040-047-049-050-058-095>099-012200-
WEST-CENTRAL ILLINOIS

CITY           SKY/WX    TMP DP  RH WIND       PRES   REMARKS
QUINCY         MOSUNNY   86  70  58 SW7       29.99F HX  90
MACOMB*        SUNNY     86  63  45 SW3       30.01F HX  86
$$

ILZ028>032-037-038-041>044-048-051>054-059>061-012200-
CENTRAL ILLINOIS

CITY           SKY/WX    TMP DP  RH WIND       PRES   REMARKS
DECATUR        PTSUNNY   87  59  38 SW9       30.00F HX  86
PEORIA         MOSUNNY   88  57  34 SW12      29.97F HX  87
SPRINGFIELD    MOSUNNY   87  62  43 VRB7      29.99F HX  87
TAYLORVILLE    NOT AVBL
$$

ILZ033-039-045-046-055>057-062-063-012200-
EAST-CENTRAL ILLINOIS

CITY           SKY/WX    TMP DP  RH WIND       PRES   REMARKS
CHAMPAIGN      PTSUNNY   83  62  49 SW9       30.00F HX  84
MATTOON        MOSUNNY   86  56  35 W6        30.00F HX  85
$$

ILZ079-100>102-012200-
SOUTHWEST ILLINOIS

CITY           SKY/WX    TMP DP  RH WIND       PRES   REMARKS
CAHOKIA*       PTSUNNY   90  63  40 SE6       29.99F HX  91
$$

ILZ064>066-069>071-074>076-080>082-084>086-088>090-092>094-012200-
SOUTH-CENTRAL ILLINOIS

CITY           SKY/WX    TMP DP  RH WIND       PRES   REMARKS
CARBONDALE     SUNNY     88  65  46 CALM      30.00F HX  90
MARION         MOSUNNY   88  66  48 S5        30.01F HX  90
MT. VERNON     SUNNY     86  59  39 CALM      30.01F HX  85
SALEM*         MOSUNNY   87  55  33 CALM      30.01S HX  85
$$

ILZ067-068-072-073-078-083-087-091-012200-
SOUTHEAST ILLINOIS

CITY           SKY/WX    TMP DP  RH WIND       PRES   REMARKS
LAWRENCEVILLE  PTSUNNY   86  58  38 N8        30.00F HX  85
FLORA*         PTSUNNY   86  55  35 CALM      30.01S HX  84
HARRISBURG*    SUNNY     87  58  37 CALM      30.02S HX  86
ROBINSON*      MOSUNNY   85  57  38 CALM      30.01F HX  84
CARMI*         MOSUNNY   86  53  31 CALM      29.99F HX  84
$$

ABBREVIATIONS USED IN REMARKS
   TC - TEMPERATURE IN CELSIUS
  WCI - WIND CHILL INDEX
   HX - HEAT INDEX
  VSB - VISIBILITY
$$




USA.gov is the U.S. government's official web portal to all federal, state and local government web resources and services.